TimeCDT,TemperatureF,Dew PointF,Humidity,Sea Level PressureIn,VisibilityMPH,Wind Direction,Wind SpeedMPH,Gust SpeedMPH,PrecipitationIn,Events,Conditions,WindDirDegrees,DateUTC
12:43 AM,48.2,26.6,43,30.24,10.0,Calm,Calm,-,N/A,,Clear,0,2012-10-07 05:43:00
2:04 AM,44.6,24.8,46,30.23,10.0,Calm,Calm,-,N/A,,Clear,0,2012-10-07 07:04:00
2:42 AM,44.6,26.6,49,30.23,10.0,Calm,Calm,-,N/A,,Clear,0,2012-10-07 07:42:00
4:11 AM,44.6,26.6,49,30.22,10.0,Calm,Calm,-,N/A,,Clear,0,2012-10-07 09:11:00
4:45 AM,39.2,24.8,56,30.22,10.0,Calm,Calm,-,N/A,,Clear,0,2012-10-07 09:45:00
5:45 AM,39.2,26.6,61,30.22,10.0,SSW,4.6,-,N/A,,Clear,210,2012-10-07 10:45:00
6:49 AM,39.2,26.6,61,30.24,10.0,South,4.6,-,N/A,,Clear,180,2012-10-07 11:49:00
7:49 AM,37.4,26.6,65,30.25,10.0,Calm,Calm,-,N/A,,Clear,0,2012-10-07 12:49:00
9:52 AM,59.0,37.4,45,30.28,10.0,Calm,Calm,-,N/A,,Clear,0,2012-10-07 14:52:00
10:42 AM,66.2,39.2,37,30.28,10.0,SW,6.9,-,N/A,,Clear,220,2012-10-07 15:42:00
11:53 AM,73.4,37.4,27,30.28,10.0,NNE,5.8,17.3,N/A,,Clear,30,2012-10-07 16:53:00
1:03 PM,77.0,35.6,22,30.26,10.0,NNE,5.8,17.3,N/A,,Clear,30,2012-10-07 18:03:00
1:43 PM,78.8,35.6,21,30.24,10.0,Calm,Calm,-,N/A,,Clear,0,2012-10-07 18:43:00
2:42 PM,80.6,35.6,20,30.21,10.0,East,6.9,-,N/A,,Clear,80,2012-10-07 19:42:00
3:40 PM,80.6,33.8,18,30.19,10.0,WNW,5.8,-,N/A,,Clear,290,2012-10-07 20:40:00
4:52 PM,80.6,30.2,16,30.17,10.0,NE,11.5,-,N/A,,Clear,50,2012-10-07 21:52:00
5:40 PM,80.6,32.0,17,30.17,10.0,NNE,10.4,-,N/A,,Clear,20,2012-10-07 22:40:00
6:45 PM,77.0,32.0,19,30.18,10.0,NE,5.8,-,N/A,,Clear,40,2012-10-07 23:45:00
7:40 PM,69.8,28.4,21,30.19,10.0,ENE,8.1,-,N/A,,Clear,70,2012-10-08 00:40:00
8:45 PM,62.6,26.6,26,30.21,10.0,East,6.9,-,N/A,,Clear,90,2012-10-08 01:45:00
9:40 PM,59.0,28.4,31,30.23,10.0,East,10.4,-,N/A,,Clear,100,2012-10-08 02:40:00
10:43 PM,62.6,37.4,39,30.24,10.0,SE,15.0,-,N/A,,Clear,140,2012-10-08 03:43:00
11:43 PM,60.8,35.6,39,30.26,10.0,SW,10.4,-,N/A,,Clear,220,2012-10-08 04:43:00